Weather History for Hutchinson, MN

Change the Weather History Date:

Friday, February 1, 2013

  Actual Average Record
Temperature  
Mean Temperature -2 °F -  
Max Temperature 9 °F 23 °F 44 °F (1987)
Min Temperature -13 °F 3 °F -21 °F (1979)
Degree Days  
Heating Degree Days 67    
Moisture  
Dew Point -8 °F    
Average Humidity 78    
Maximum Humidity 92    
Minimum Humidity 67    
Precipitation  
Precipitation 0.00 in - - ()
Sea Level Pressure  
Sea Level Pressure 30.15 in    
Wind  
Wind Speed 7 mph (SE)    
Max Wind Speed 12 mph    
Max Gust Speed 17 mph    
Visibility 8 miles    
Events Snow    
Averages and records for this station are not official NWS values.
T = Trace of Precipitation, MM = Missing Value Source: NWS Daily Summary

Daily Weather History Graph

Daily Weather History Graph

Search for Another Location

Airport:

Trip Planner

Search our weather history database for the weather conditions in past years. The results will help you decide how hot, cold, wet, or windy it might be!

Date:

Astronomy

Feb. 01, 2013 Rise Set
Actual Time 7:36 AM CST 5:26 PM CST
Civil Twilight 7:05 AM CST 5:57 PM CST
Nautical Twilight 6:30 AM CST 6:32 PM CST
Astronomical Twilight 5:56 AM CST 7:06 PM CST
Moon 11:53 PM CST (2/1) 9:53 AM CST (2/1)
Length of Visible Light 10h 51m
Length of Day
9h 49m
Waning Gibbous, 70% of the Moon is Illuminated
Feb 1
Waning Gibbous
Feb 3
Last Quarter
Feb 10
New
Feb 17
First Quarter
Feb 25
Full

Hourly Weather History & Observations

Time (CST) Temp. Windchill Dew Point Humidity Pressure Visibility Wind Dir Wind Speed Gust Speed Precip Events Conditions
12:05 AM -9.4 °F -28.9 °F -14.8 °F 77% 30.27 in 10.0 mi WNW 11.5 mph 17.3 mph N/A   Clear
12:25 AM -9.4 °F -28.9 °F -14.8 °F 77% 30.27 in 10.0 mi WNW 11.5 mph - N/A   Clear
1:05 AM -9.4 °F -25.6 °F -14.8 °F 77% 30.27 in 10.0 mi WNW 8.1 mph - N/A   Clear
1:25 AM -9.4 °F -27.9 °F -14.8 °F 77% 30.27 in 10.0 mi West 10.4 mph - N/A   Clear
1:45 AM -9.4 °F -24.3 °F -14.8 °F 77% 30.26 in 10.0 mi West 6.9 mph - N/A   Clear
2:05 AM -11.2 °F -24.8 °F -16.6 °F 77% 30.27 in 10.0 mi West 5.8 mph - N/A   Clear
2:25 AM -11.2 °F -27.8 °F -16.6 °F 77% 30.27 in 10.0 mi West 8.1 mph - N/A   Clear
2:45 AM -11.2 °F -27.8 °F -16.6 °F 77% 30.27 in 10.0 mi West 8.1 mph - N/A   Clear
3:05 AM -11.2 °F -30.1 °F -16.6 °F 77% 30.27 in 10.0 mi West 10.4 mph - N/A   Clear
3:25 AM -11.2 °F -30.1 °F -16.6 °F 77% 30.27 in 10.0 mi West 10.4 mph - N/A   Clear
3:45 AM -11.2 °F -27.8 °F -16.6 °F 77% 30.28 in 10.0 mi West 8.1 mph - N/A   Clear
4:05 AM -11.2 °F -30.1 °F -16.6 °F 77% 30.28 in 10.0 mi West 10.4 mph - N/A   Clear
4:25 AM -11.2 °F -27.8 °F -16.6 °F 77% 30.28 in 10.0 mi West 8.1 mph - N/A   Clear
4:45 AM -11.2 °F -26.4 °F -16.6 °F 77% 30.28 in 10.0 mi West 6.9 mph - N/A   Clear
5:09 AM -11.2 °F -26.4 °F -16.2 °F 78% 30.28 in 10.0 mi West 6.9 mph - N/A   Clear
5:10 AM -11.2 °F -26.4 °F -16.6 °F 77% 30.28 in 10.0 mi West 6.9 mph - N/A   Clear
5:28 AM -11.2 °F -26.4 °F -16.1 °F 79% 30.27 in 10.0 mi West 6.9 mph - N/A   Clear
6:07 AM -11.2 °F -23.0 °F -16.1 °F 79% 30.27 in 10.0 mi WSW 4.6 mph - N/A   Clear
6:29 AM -12.3 °F - -17.3 °F 78% 30.27 in 10.0 mi Calm Calm - N/A   Clear
6:48 AM -13.5 °F - -18.4 °F 79% 30.26 in 10.0 mi Calm Calm - N/A   Clear
6:53 AM -12.5 °F - -17.5 °F 78% 30.26 in 10.0 mi Calm Calm - N/A   Clear
7:25 AM -13.0 °F - -18.4 °F 77% 30.26 in 10.0 mi Calm Calm - N/A   Clear
7:39 AM -13.5 °F - -18.4 °F 79% 30.26 in 10.0 mi Calm Calm - N/A   Clear
7:48 AM -13.5 °F - -18.4 °F 79% 30.26 in 10.0 mi Calm Calm - N/A   Clear
8:09 AM -11.2 °F - -16.1 °F 79% 30.25 in 10.0 mi Calm Calm - N/A   Clear
8:28 AM -11.2 °F - -16.6 °F 77% 30.24 in 10.0 mi Calm Calm - N/A   Clear
8:48 AM -9.8 °F - -15.7 °F 75% 30.23 in 10.0 mi Calm Calm - N/A   Clear
9:08 AM -8.5 °F - -14.8 °F 74% 30.23 in 10.0 mi Calm Calm - N/A   Clear
9:28 AM -8.5 °F - -15.5 °F 71% 30.22 in 10.0 mi Calm Calm - N/A   Clear
9:48 AM -8.3 °F - -15.3 °F 71% 30.22 in 10.0 mi Calm Calm - N/A   Clear
10:08 AM -6.0 °F -14.7 °F -13.0 °F 72% 30.21 in 10.0 mi SE 3.5 mph - N/A   Clear
10:28 AM -6.0 °F -16.9 °F -13.7 °F 69% 30.22 in 10.0 mi South 4.6 mph - N/A   Clear
10:48 AM -5.6 °F -16.5 °F -13.9 °F 67% 30.21 in 10.0 mi SSW 4.6 mph - N/A   Clear
11:08 AM -3.5 °F -15.7 °F -11.4 °F 69% 30.22 in 10.0 mi South 5.8 mph - N/A   Clear
11:28 AM -3.3 °F -13.7 °F -11.2 °F 69% 30.21 in 10.0 mi SSW 4.6 mph - N/A   Clear
11:48 AM -2.2 °F -14.2 °F -9.9 °F 70% 30.20 in 10.0 mi SSW 5.8 mph - N/A   Mostly Cloudy
12:08 PM -0.9 °F -12.7 °F -8.7 °F 70% 30.18 in 10.0 mi SSW 5.8 mph - N/A   Mostly Cloudy
12:28 PM -0.2 °F -13.2 °F -7.6 °F 71% 30.17 in 10.0 mi South 6.9 mph - N/A   Scattered Clouds
12:49 PM 0.3 °F -13.8 °F -6.7 °F 72% 30.15 in 10.0 mi SE 8.1 mph - N/A   Scattered Clouds
1:08 PM 0.3 °F -11.2 °F -6.7 °F 72% 30.14 in 10.0 mi SSE 5.8 mph - N/A   Mostly Cloudy
1:28 PM 0.5 °F -11.0 °F -6.7 °F 72% 30.13 in 10.0 mi SE 5.8 mph - N/A   Overcast
1:48 PM 1.4 °F -8.3 °F -6.3 °F 70% 30.12 in 10.0 mi SSE 4.6 mph - N/A   Overcast
1:58 PM 1.4 °F -11.3 °F -6.3 °F 70% 30.11 in 10.0 mi SE 6.9 mph - N/A   Overcast
2:30 PM 1.4 °F -12.5 °F -4.0 °F 78% 30.10 in 10.0 mi SE 8.1 mph - N/A   Overcast
2:45 PM 3.2 °F -11.3 °F -4.0 °F 72% 30.08 in 10.0 mi SE 9.2 mph - N/A   Overcast
3:05 PM 3.2 °F -10.3 °F -4.0 °F 72% 30.08 in 10.0 mi SE 8.1 mph - N/A   Overcast
3:25 PM 3.2 °F -9.1 °F -4.0 °F 72% 30.08 in 10.0 mi SE 6.9 mph - N/A   Overcast
4:05 PM 6.8 °F -6.9 °F -0.4 °F 72% 30.05 in 5.0 mi SE 9.2 mph - N/A   Overcast
4:25 PM 6.8 °F -5.9 °F -0.4 °F 72% 30.05 in 3.0 mi ESE 8.1 mph - N/A   Overcast
4:44 PM 6.6 °F -8.0 °F 1.4 °F 79% 30.04 in 2.5 mi ESE 10.4 mph - N/A Snow Light Snow
4:48 PM 6.6 °F -6.1 °F 1.6 °F 80% 30.04 in 4.0 mi ESE 8.1 mph - N/A Snow Light Snow
5:08 PM 6.6 °F -7.1 °F 1.4 °F 79% 30.04 in 7.0 mi ESE 9.2 mph - N/A Snow Light Snow
5:28 PM 6.6 °F -3.7 °F 1.4 °F 79% 30.05 in 3.0 mi East 5.8 mph - N/A Snow Light Snow
5:47 PM 6.6 °F -5.0 °F 1.8 °F 80% 30.04 in 3.0 mi East 6.9 mph - N/A Snow Light Snow
6:08 PM 6.6 °F -7.1 °F 2.3 °F 82% 30.02 in 5.0 mi East 9.2 mph - N/A Snow Light Snow
6:29 PM 6.6 °F -7.1 °F 2.5 °F 83% 30.02 in 10.0 mi East 9.2 mph - N/A Snow Light Snow
6:48 PM 6.6 °F -3.7 °F 2.8 °F 84% 30.02 in 10.0 mi ESE 5.8 mph - N/A Snow Light Snow
7:09 PM 6.6 °F -5.0 °F 3.0 °F 85% 30.02 in 7.0 mi ESE 6.9 mph - N/A Snow Light Snow
7:28 PM 9.1 °F -1.9 °F 5.9 °F 87% 30.02 in 10.0 mi East 6.9 mph - N/A Snow Light Snow
7:53 PM 9.1 °F -0.7 °F 5.9 °F 87% 30.01 in 7.0 mi East 5.8 mph - N/A Snow Light Snow
8:08 PM 9.1 °F -0.7 °F 5.9 °F 87% 30.01 in 5.0 mi ENE 5.8 mph - N/A Snow Light Snow
8:28 PM 6.6 °F -5.0 °F 3.6 °F 87% 30.01 in 4.0 mi ENE 6.9 mph - N/A Snow Light Snow
8:49 PM 6.6 °F -6.1 °F 3.7 °F 88% 30.01 in 2.5 mi ENE 8.1 mph - N/A Snow Light Snow
9:08 PM 6.6 °F -3.7 °F 3.7 °F 88% 30.00 in 1.5 mi ENE 5.8 mph - N/A Snow Light Snow
9:28 PM 6.6 °F -5.0 °F 3.7 °F 88% 30.01 in 1.8 mi NE 6.9 mph - N/A Snow Light Snow
9:48 PM 6.6 °F -6.1 °F 3.7 °F 88% 30.01 in 3.0 mi NE 8.1 mph - N/A Snow Light Snow
9:49 PM 6.6 °F -7.1 °F 3.7 °F 88% 30.00 in 3.0 mi ENE 9.2 mph - N/A Snow Light Snow
10:25 PM 6.8 °F -4.8 °F 3.2 °F 85% 30.01 in 2.0 mi NNE 6.9 mph - N/A   Overcast
10:45 PM 6.8 °F -4.8 °F 3.2 °F 85% 30.01 in 4.0 mi NE 6.9 mph - N/A   Overcast
11:05 PM 5.0 °F -5.6 °F 3.2 °F 92% 30.01 in 7.0 mi NNE 5.8 mph - N/A   Overcast
11:25 PM 5.0 °F -4.1 °F 1.4 °F 85% 30.02 in 7.0 mi NNE 4.6 mph - N/A   Overcast
11:45 PM 5.0 °F -5.6 °F 1.4 °F 85% 30.02 in 5.0 mi North 5.8 mph - N/A   Overcast